EW0125 Weather Reports


time (UTC)temp
C
wind
direction
speed
KPH
gust
KPH
rain 1hr
cm
rain 24hr
cm
rain mn
cm
humidity
%
barometer
mb
20260510225552 28 0 1.6 8.0 0.00 0.00 0.00 33 1012.0
20260510225052 28 286 0.0 4.8 0.00 0.00 0.00 33 1012.0
20260510224555 28 245 0.0 4.8 0.00 0.00 0.00 32 1011.9
20260510224053 28 245 0.0 4.8 0.00 0.00 0.00 32 1011.9
20260510223556 28 245 1.6 6.4 0.00 0.00 0.00 32 1011.9
20260510223058 28 243 1.6 6.4 0.00 0.00 0.00 32 1011.9
20260510222554 28 244 1.6 8.0 0.00 0.00 0.00 31 1011.9
20260510222052 28 243 1.6 11.3 0.00 0.00 0.00 31 1012.0
20260510221600 28 0 3.2 11.3 0.00 0.00 0.00 31 1012.0
20260510221052 28 221 3.2 12.9 0.00 0.00 0.00 31 1012.0
20260510220557 28 173 1.6 12.9 0.00 0.00 0.00 31 1012.0
20260510220056 29 254 1.6 9.7 0.00 0.00 0.00 30 1012.1
20260510215555 29 207 3.2 9.7 0.00 0.00 0.00 31 1012.0
20260510215052 29 171 0.0 9.7 0.00 0.00 0.00 31 1012.1
20260510214553 29 166 3.2 9.7 0.00 0.00 0.00 31 1012.1
20260510214056 29 316 0.0 12.9 0.00 0.00 0.00 31 1012.2
20260510213553 29 313 4.8 12.9 0.00 0.00 0.00 29 1012.1
20260510213054 29 267 3.2 14.5 0.00 0.00 0.00 30 1012.1
20260510212556 29 287 4.8 14.5 0.00 0.00 0.00 30 1012.0
20260510212052 30 259 1.6 6.4 0.00 0.00 0.00 30 1012.0
20260510211555 30 254 0.0 8.0 0.00 0.00 0.00 30 1012.1
20260510211052 30 311 3.2 8.0 0.00 0.00 0.00 30 1012.0
20260510210552 30 313 3.2 19.3 0.00 0.00 0.00 30 1012.0
20260510210058 30 313 3.2 19.3 0.00 0.00 0.00 31 1012.1
20260510205553 30 310 4.8 16.1 0.00 0.00 0.00 31 1012.1
20260510205053 30 340 1.6 9.7 0.00 0.00 0.00 31 1011.9
20260510204601 30 285 1.6 9.7 0.00 0.00 0.00 31 1011.9
20260510204103 30 285 3.2 9.7 0.00 0.00 0.00 31 1011.9
20260510203552 30 28 1.6 14.5 0.00 0.00 0.00 32 1012.0
20260510203059 30 342 4.8 14.5 0.00 0.00 0.00 31 1011.9
20260510202553 30 145 1.6 9.7 0.00 0.00 0.00 31 1012.0
20260510202053 30 189 3.2 9.7 0.00 0.00 0.00 31 1012.1
20260510201616 30 186 1.6 16.1 0.00 0.00 0.00 31 1012.1
20260510201052 30 273 4.8 16.1 0.00 0.00 0.00 30 1012.2
20260510200552 30 337 1.6 16.1 0.00 0.00 0.00 31 1012.1
20260510200104 30 274 4.8 16.1 0.00 0.00 0.00 30 1012.2
20260510195552 30 242 1.6 14.5 0.00 0.00 0.00 32 1012.3
20260510195053 30 175 3.2 14.5 0.00 0.00 0.00 33 1012.3
20260510194604 30 209 1.6 14.5 0.00 0.00 0.00 32 1012.4
20260510194052 30 278 4.8 16.1 0.00 0.00 0.00 32 1012.3
20260510193552 30 251 6.4 16.1 0.00 0.00 0.00 33 1012.5
20260510193104 30 193 4.8 11.3 0.00 0.00 0.00 33 1012.5
20260510192552 30 164 1.6 14.5 0.00 0.00 0.00 33 1012.6
20260510192053 30 288 1.6 16.1 0.00 0.00 0.00 34 1012.5
20260510191605 30 165 6.4 16.1 0.00 0.00 0.00 34 1012.7
20260510191053 30 327 1.6 8.0 0.00 0.00 0.00 33 1012.5
20260510190552 29 0 1.6 12.9 0.00 0.00 0.00 33 1012.6
20260510190057 29 333 3.2 12.9 0.00 0.00 0.00 34 1012.8
20260510185552 30 274 3.2 12.9 0.00 0.00 0.00 34 1012.9
20260510185052 30 271 3.2 14.5 0.00 0.00 0.00 34 1012.8
20260510184557 30 298 1.6 14.5 0.00 0.00 0.00 36 1013.0
20260510184056 30 281 8.0 12.9 0.00 0.00 0.00 36 1012.9
20260510183552 29 0 3.2 12.9 0.00 0.00 0.00 38 1013.1
20260510183058 29 160 4.8 9.7 0.00 0.00 0.00 36 1013.0
20260510182552 30 192 3.2 9.7 0.00 0.00 0.00 37 1013.1
20260510182054 30 193 1.6 12.9 0.00 0.00 0.00 37 1013.1
20260510181557 29 191 3.2 12.9 0.00 0.00 0.00 37 1013.1
20260510181053 29 191 4.8 12.9 0.00 0.00 0.00 37 1013.2
20260510180553 29 178 1.6 12.9 0.00 0.00 0.00 38 1013.2
20260510180108 29 173 3.2 9.7 0.00 0.00 0.00 39 1013.3
20260510175552 29 188 3.2 8.0 0.00 0.00 0.00 38 1013.4
20260510175052 29 185 1.6 11.3 0.00 0.00 0.00 38 1013.3
20260510174555 28 185 3.2 11.3 0.00 0.00 0.00 38 1013.4
20260510174054 28 184 4.8 11.3 0.00 0.00 0.00 37 1013.3
20260510173612 28 291 3.2 11.3 0.00 0.00 0.00 39 1013.2
20260510173100 28 232 1.6 8.0 0.00 0.00 0.00 40 1013.3
20260510172552 28 192 1.6 8.0 0.00 0.00 0.00 39 1013.3
20260510172051 28 192 0.0 9.7 0.00 0.00 0.00 40 1013.3
20260510171556 28 236 3.2 9.7 0.00 0.00 0.00 41 1013.4
20260510171052 28 355 4.8 9.7 0.00 0.00 0.00 41 1013.6
20260510170553 28 350 3.2 9.7 0.00 0.00 0.00 41 1013.7
20260510170056 28 46 1.6 12.9 0.00 0.00 0.00 43 1013.7
20260510165555 28 41 1.6 12.9 0.00 0.00 0.00 41 1013.7
20260510165052 28 53 1.6 8.0 0.00 0.00 0.00 42 1013.7
20260510164558 27 158 1.6 8.0 0.00 0.00 0.00 43 1013.9
20260510164053 27 167 3.2 8.0 0.00 0.00 0.00 44 1013.9
20260510163553 27 138 1.6 8.0 0.00 0.00 0.00 44 1013.8
20260510163101 27 134 3.2 9.7 0.00 0.00 0.00 44 1013.8
20260510162553 27 150 3.2 9.7 0.00 0.00 0.00 44 1013.9
20260510162052 27 140 1.6 11.3 0.00 0.00 0.00 43 1013.9
20260510161600 27 140 1.6 11.3 0.00 0.00 0.00 43 1014.0
20260510161053 27 140 3.2 11.3 0.00 0.00 0.00 45 1014.0
20260510160553 27 232 1.6 6.4 0.00 0.00 0.00 48 1014.0
20260510160059 26 232 3.2 6.4 0.00 0.00 0.00 47 1014.0
20260510155555 26 323 3.2 6.4 0.00 0.00 0.00 47 1014.2
20260510155055 27 323 3.2 6.4 0.00 0.00 0.00 48 1014.1
20260510154601 27 325 1.6 8.0 0.00 0.00 0.00 49 1014.3
20260510154053 27 325 1.6 8.0 0.00 0.00 0.00 49 1014.2
20260510153553 27 318 3.2 9.7 0.00 0.00 0.00 51 1014.3
20260510153104 26 315 4.8 9.7 0.00 0.00 0.00 50 1014.4
20260510152552 26 294 1.6 8.0 0.00 0.00 0.00 51 1014.4
20260510152054 26 28 1.6 4.8 0.00 0.00 0.00 52 1014.4
20260510151603 26 28 0.0 12.9 0.00 0.00 0.00 54 1014.6
20260510151052 26 28 0.0 12.9 0.00 0.00 0.00 53 1014.5
20260510150554 26 28 3.2 12.9 0.00 0.00 0.00 53 1014.5
20260510150108 26 280 1.6 8.0 0.00 0.00 0.00 55 1014.5
20260510145552 25 274 1.6 6.4 0.00 0.00 0.00 54 1014.5
20260510145052 25 0 1.6 9.7 0.00 0.00 0.00 55 1014.5
20260510144608 25 271 1.6 9.7 0.00 0.00 0.00 56 1014.4
20260510144053 25 343 1.6 4.8 0.00 0.00 0.00 57 1014.4
20260510143552 25 17 1.6 8.0 0.00 0.00 0.00 58 1014.3
20260510143102 25 30 1.6 8.0 0.00 0.00 0.00 60 1014.3
20260510142552 25 63 3.2 8.0 0.00 0.00 0.00 59 1014.3
20260510142052 25 340 1.6 6.4 0.00 0.00 0.00 62 1014.2
20260510141556 25 340 1.6 6.4 0.00 0.00 0.00 62 1014.1
20260510141054 25 234 1.6 6.4 0.00 0.00 0.00 65 1014.2
20260510140552 24 234 1.6 6.4 0.00 0.00 0.00 65 1014.2
20260510140056 24 62 1.6 6.4 0.00 0.00 0.00 67 1014.1
20260510135553 23 0 1.6 6.4 0.00 0.00 0.00 66 1014.1
20260510135052 23 59 1.6 6.4 0.00 0.00 0.00 68 1014.0
20260510134555 23 59 0.0 8.0 0.00 0.00 0.00 68 1014.0
20260510134052 23 59 1.6 8.0 0.00 0.00 0.00 69 1014.2
20260510133552 22 63 1.6 8.0 0.00 0.00 0.00 70 1014.2
20260510133055 22 61 1.6 6.4 0.00 0.00 0.00 72 1014.2
20260510132552 22 0 1.6 9.7 0.00 0.00 0.00 72 1014.3
20260510132053 22 311 1.6 9.7 0.00 0.00 0.00 74 1014.2
20260510131558 21 266 3.2 9.7 0.00 0.00 0.00 75 1014.1
20260510131052 21 266 0.0 6.4 0.00 0.00 0.00 75 1014.0
20260510130552 21 266 0.0 6.4 0.00 0.00 0.00 76 1014.0
20260510130105 21 296 3.2 11.3 0.00 0.00 0.00 77 1014.0
20260510125553 21 309 3.2 11.3 0.00 0.00 0.00 77 1013.9
20260510125052 20 294 3.2 8.0 0.00 0.00 0.00 77 1013.8
20260510124554 20 318 0.0 8.0 0.00 0.00 0.00 79 1013.9
20260510124052 20 269 0.0 4.8 0.00 0.00 0.00 81 1013.9
20260510123551 20 0 0.0 4.8 0.00 0.00 0.00 82 1013.9
20260510123058 20 268 1.6 4.8 0.00 0.00 0.00 84 1013.8
20260510122554 19 264 0.0 3.2 0.00 0.00 0.00 84 1013.7
20260510122052 18 264 0.0 3.2 0.00 0.00 0.00 85 1013.7
20260510121557 18 0 0.0 1.6 0.00 0.00 0.00 86 1013.6
20260510121054 18 0 0.0 1.6 0.00 0.00 0.00 87 1013.5
20260510120553 17 0 0.0 3.2 0.00 0.00 0.00 88 1013.6
20260510120057 17 0 0.0 3.2 0.00 0.00 0.00 88 1013.6
20260510115552 16 263 0.0 4.8 0.00 0.00 0.00 89 1013.5
20260510115052 16 263 0.0 4.8 0.00 0.00 0.00 89 1013.4
20260510114554 16 263 1.6 4.8 0.00 0.00 0.00 90 1013.2
20260510114053 16 0 0.0 0.0 0.00 0.00 0.00 90 1013.2
20260510113552 15 0 0.0 0.0 0.00 0.00 0.00 90 1013.3
20260510113100 15 0 0.0 0.0 0.00 0.00 0.00 90 1013.2
20260510112552 14 0 0.0 0.0 0.00 0.00 0.00 90 1013.2
20260510112055 14 0 0.0 0.0 0.00 0.00 0.00 90 1013.1
20260510111555 13 0 0.0 0.0 0.00 0.00 0.00 90 1013.0
20260510111051 13 0 0.0 0.0 0.00 0.00 0.00 90 1012.9
20260510110552 13 0 0.0 0.0 0.00 0.00 0.00 90 1012.7
20260510110054 13 0 0.0 1.6 0.00 0.00 0.00 89 1012.7
20260510105553 13 0 0.0 1.6 0.00 0.00 0.00 89 1012.5
20260510105052 13 0 0.0 0.0 0.00 0.00 0.00 89 1012.5
20260510104554 13 0 0.0 0.0 0.00 0.00 0.00 89 1012.2
20260510104053 13 0 0.0 0.0 0.00 0.00 0.00 88 1012.3
20260510103552 13 0 0.0 0.0 0.00 0.00 0.00 88 1012.2
20260510103056 13 0 0.0 0.0 0.00 0.00 0.00 88 1012.2
20260510102552 13 0 0.0 0.0 0.00 0.00 0.00 88 1012.2
20260510102055 13 0 0.0 1.6 0.00 0.00 0.00 88 1012.1
20260510101558 13 0 0.0 4.8 0.00 0.00 0.00 88 1012.1
20260510101057 13 0 0.0 4.8 0.00 0.00 0.00 88 1012.0
20260510100552 13 263 0.0 3.2 0.00 0.00 0.00 88 1011.9
20260510100059 13 263 0.0 1.6 0.00 0.00 0.00 88 1011.8
20260510095552 13 0 0.0 1.6 0.00 0.00 0.00 88 1011.6
20260510095052 13 263 0.0 0.0 0.00 0.00 0.00 88 1011.6
20260510094553 13 0 0.0 0.0 0.00 0.00 0.00 87 1011.5
20260510094052 13 0 0.0 0.0 0.00 0.00 0.00 87 1011.5
20260510093553 13 0 0.0 0.0 0.00 0.00 0.00 87 1011.4
20260510093056 14 0 0.0 0.0 0.00 0.00 0.00 87 1011.3
20260510092553 14 0 0.0 0.0 0.00 0.00 0.00 87 1011.3
20260510092053 14 0 0.0 0.0 0.00 0.00 0.00 87 1011.3
20260510091601 14 0 0.0 0.0 0.00 0.00 0.00 87 1011.2
20260510091052 14 0 0.0 0.0 0.00 0.00 0.00 87 1011.0
20260510090554 14 0 0.0 0.0 0.00 0.00 0.00 87 1011.2
20260510090113 14 0 0.0 0.0 0.00 0.00 0.00 86 1011.1
20260510085556 15 0 0.0 0.0 0.00 0.00 0.00 86 1011.0
20260510085052 15 0 0.0 0.0 0.00 0.00 0.00 86 1011.0
20260510084601 15 0 0.0 1.6 0.00 0.00 0.00 86 1010.9
20260510084052 15 0 0.0 1.6 0.00 0.00 0.00 86 1010.9
20260510083552 15 263 0.0 1.6 0.00 0.00 0.00 86 1010.9
20260510083102 15 263 0.0 1.6 0.00 0.00 0.00 86 1010.7
20260510082552 15 0 0.0 1.6 0.00 0.00 0.00 86 1010.8
20260510082128 15 0 0.0 1.6 0.00 0.00 0.00 86 1010.7
20260510081600 15 0 0.0 1.6 0.00 0.00 0.00 86 1010.8
20260510081053 15 0 0.0 1.6 0.00 0.00 0.00 85 1010.8
20260510080552 15 0 0.0 3.2 0.00 0.00 0.00 85 1010.8
20260510080103 16 0 0.0 3.2 0.00 0.00 0.00 85 1010.8
20260510075552 16 0 0.0 1.6 0.00 0.00 0.00 85 1010.7
20260510075052 16 263 0.0 1.6 0.00 0.00 0.00 85 1010.7
20260510074558 16 0 0.0 1.6 0.00 0.00 0.00 85 1010.7
20260510074052 16 0 0.0 1.6 0.00 0.00 0.00 85 1010.6
20260510073552 16 0 0.0 1.6 0.00 0.00 0.00 85 1010.5
20260510073115 16 0 0.0 3.2 0.00 0.00 0.00 85 1010.6
20260510072553 16 0 0.0 3.2 0.00 0.00 0.00 85 1010.6
20260510072053 16 263 0.0 4.8 0.00 0.00 0.00 84 1010.6
20260510071556 16 0 0.0 4.8 0.00 0.00 0.00 84 1010.5
20260510071052 16 0 0.0 4.8 0.00 0.00 0.00 84 1010.5
20260510070552 16 251 0.0 3.2 0.00 0.00 0.00 84 1010.5
20260510065552 16 0 0.0 4.8 0.00 0.00 0.00 83 1010.5
20260510065051 16 0 0.0 4.8 0.00 0.00 0.00 83 1010.5
20260510064634 17 251 0.0 3.2 0.00 0.00 0.00 83 1010.5
20260510064051 17 0 0.0 3.2 0.00 0.00 0.00 83 1010.6
20260510063553 17 251 0.0 3.2 0.00 0.00 0.00 83 1010.5
20260510063059 17 0 0.0 4.8 0.00 0.00 0.00 83 1010.4
20260510062552 17 0 0.0 4.8 0.00 0.00 0.00 82 1010.7
20260510062051 17 251 0.0 4.8 0.00 0.00 0.00 82 1010.6
20260510061600 17 0 0.0 4.8 0.00 0.00 0.00 82 1010.6
20260510061053 17 250 0.0 4.8 0.00 0.00 0.00 82 1010.6
20260510060556 17 0 0.0 4.8 0.00 0.00 0.00 82 1010.6
20260510060058 17 0 0.0 3.2 0.00 0.00 0.00 82 1010.7
20260510055553 17 0 0.0 3.2 0.00 0.00 0.00 82 1010.8
20260510055051 17 243 0.0 4.8 0.00 0.00 0.00 81 1010.7
20260510054552 17 0 0.0 6.4 0.00 0.00 0.00 81 1010.6
20260510054053 17 243 0.0 6.4 0.00 0.00 0.00 81 1010.7
20260510053553 17 0 1.6 6.4 0.00 0.00 0.00 81 1010.9
20260510053055 17 242 1.6 9.7 0.00 0.00 0.00 81 1010.9
20260510052552 17 0 1.6 9.7 0.00 0.00 0.00 81 1010.8
20260510052053 17 281 0.0 6.4 0.00 0.00 0.00 81 1010.9
20260510051558 17 0 0.0 6.4 0.00 0.00 0.00 81 1011.0
20260510051051 17 0 1.6 9.7 0.00 0.00 0.00 81 1010.9
20260510050551 17 0 1.6 9.7 0.00 0.00 0.00 81 1010.8
20260510050058 17 296 1.6 8.0 0.00 0.00 0.00 81 1010.9
20260510045553 17 242 0.0 4.8 0.00 0.00 0.00 81 1010.9
20260510045052 17 281 0.0 6.4 0.00 0.00 0.00 80 1010.9
20260510044612 17 0 1.6 6.4 0.00 0.00 0.00 80 1010.9
20260510044054 17 269 0.0 3.2 0.00 0.00 0.00 80 1010.8
20260510043551 17 269 0.0 4.8 0.00 0.00 0.00 80 1010.8
20260510043058 17 269 0.0 6.4 0.00 0.00 0.00 79 1010.9
20260510042554 17 0 1.6 6.4 0.00 0.00 0.00 79 1010.9
20260510042053 17 275 0.0 4.8 0.00 0.00 0.00 79 1010.8
20260510041558 17 186 1.6 4.8 0.00 0.00 0.00 78 1010.8
20260510041052 17 183 0.0 3.2 0.00 0.00 0.00 78 1010.7
20260510040553 17 0 0.0 3.2 0.00 0.00 0.00 77 1010.7
20260510040058 17 0 0.0 3.2 0.00 0.00 0.00 77 1010.7
20260510035552 17 0 0.0 8.0 0.00 0.00 0.00 77 1010.8
20260510035053 17 0 0.0 8.0 0.00 0.00 0.00 77 1010.6
20260510034616 17 0 1.6 8.0 0.00 0.00 0.00 77 1010.6
20260510034052 17 0 0.0 8.0 0.00 0.00 0.00 77 1010.6
20260510033553 17 190 1.6 8.0 0.00 0.00 0.00 76 1010.4
20260510033059 17 0 1.6 4.8 0.00 0.00 0.00 76 1010.5
20260510032553 17 0 0.0 4.8 0.00 0.00 0.00 76 1010.4
20260510032053 17 0 0.0 3.2 0.00 0.00 0.00 76 1010.4
20260510031554 17 0 0.0 3.2 0.00 0.00 0.00 75 1010.3
20260510031054 17 0 0.0 4.8 0.00 0.00 0.00 75 1010.4
20260510030551 17 0 0.0 4.8 0.00 0.00 0.00 75 1010.3
20260510030059 17 0 0.0 3.2 0.00 0.00 0.00 74 1010.5
20260510025553 17 0 0.0 3.2 0.00 0.00 0.00 74 1010.4
20260510025051 17 0 0.0 4.8 0.00 0.00 0.00 74 1010.4
20260510024601 17 0 0.0 4.8 0.00 0.00 0.00 73 1010.3
20260510024052 17 0 0.0 4.8 0.00 0.00 0.00 73 1010.2
20260510023552 17 192 0.0 4.8 0.00 0.00 0.00 73 1010.3
20260510023054 18 0 0.0 3.2 0.00 0.00 0.00 73 1010.4
20260510022554 18 0 0.0 3.2 0.00 0.00 0.00 72 1010.3
20260510022052 18 192 0.0 3.2 0.00 0.00 0.00 72 1010.2
20260510021604 18 0 0.0 3.2 0.00 0.00 0.00 72 1010.2
20260510021052 18 0 0.0 1.6 0.00 0.00 0.00 71 1010.1
20260510020554 18 0 0.0 1.6 0.00 0.00 0.00 71 1010.1
20260510020054 18 192 0.0 1.6 0.00 0.00 0.00 70 1009.9
20260510015552 18 0 0.0 1.6 0.00 0.00 0.00 70 1009.8
20260510015051 18 0 0.0 4.8 0.00 0.00 0.00 70 1009.9
20260510014602 18 0 0.0 6.4 0.00 0.00 0.00 69 1009.9
20260510014053 18 0 0.0 6.4 0.00 0.00 0.00 69 1009.7
20260510013554 18 192 0.0 1.6 0.00 0.00 0.00 69 1009.7
20260510013117 18 192 0.0 1.6 0.00 0.00 0.00 68 1009.6
20260510012551 19 0 0.0 1.6 0.00 0.00 0.00 67 1009.6
20260510012052 19 0 0.0 1.6 0.00 0.00 0.00 66 1009.6
20260510011558 19 0 0.0 1.6 0.00 0.00 0.00 66 1009.7
20260510011052 20 0 0.0 0.0 0.00 0.00 0.00 65 1009.6
20260510010553 20 0 0.0 0.0 0.00 0.00 0.00 65 1009.5
20260510010056 20 0 0.0 1.6 0.00 0.00 0.00 65 1009.4
20260510005553 20 0 0.0 1.6 0.00 0.00 0.00 64 1009.3
20260510005051 20 0 0.0 1.6 0.00 0.00 0.00 64 1009.4
20260510004555 20 0 0.0 4.8 0.00 0.00 0.00 63 1009.4
20260510004052 20 0 0.0 4.8 0.00 0.00 0.00 63 1009.4
20260510003554 21 192 0.0 3.2 0.00 0.00 0.00 62 1009.3
20260510003104 21 0 0.0 3.2 0.00 0.00 0.00 62 1009.2
20260510002556 21 0 0.0 6.4 0.00 0.00 0.00 61 1009.2
20260510002056 21 0 0.0 6.4 0.00 0.00 0.00 61 1009.0
20260510001555 21 0 0.0 4.8 0.00 0.00 0.00 60 1009.1
20260510001052 22 0 0.0 4.8 0.00 0.00 0.00 60 1009.0
20260510000554 22 0 0.0 4.8 0.00 0.00 0.00 60 1008.9
20260510000123 22 0 0.0 4.8 0.00 0.00 0.00 59 1008.7
20260509235552 22 192 1.6 4.8 0.00 0.00 0.00 59 1008.7
20260509235053 22 0 0.0 4.8 0.00 0.00 0.00 58 1008.7
20260509234554 22 0 0.0 6.4 0.00 0.00 0.00 58 1008.6
20260509234052 22 192 0.0 9.7 0.00 0.00 0.00 57 1008.5
20260509233553 23 192 0.0 9.7 0.00 0.00 0.00 56 1008.4
20260509233054 23 190 0.0 3.2 0.00 0.00 0.00 56 1008.5
20260509232553 23 190 0.0 8.0 0.00 0.00 0.00 55 1008.5
20260509232053 23 190 0.0 8.0 0.00 0.00 0.00 54 1008.6
20260509231608 23 0 1.6 8.0 0.00 0.00 0.00 54 1008.5
20260509231052 23 0 0.0 4.8 0.00 0.00 0.00 54 1008.5
20260509230552 23 0 0.0 4.8 0.00 0.00 0.00 53 1008.5
20260509230105 24 0 1.6 6.4 0.00 0.00 0.00 53 1008.4